Location: Cudham
(51.3000°N, 0.0667°E)
Time: 06:54:11
(UTC+00:00)

ASTEX 1 - Pass Details

Date: 19 May 2025
Orbit: 715 x 734 km, 92.7° (Epoch: 18 June)

Event Time Altitude Azimuth Distance (km) Brightness Sun altitude
Rises 23:17:12 0° 11° (N) 3,163 8.0 -18.2°
Reaches altitude 10° 23:19:39 10° 19° (NNE) 2,239 6.8 -18.3°
Maximum altitude 23:24:17 39° 88° (E) 1,101 4.2 -18.4°
Enters shadow 23:26:13 28° 134° (SE) 1,372 4.4 -18.4°
